Wind_Speed
20 21 21 21 21 19 16 13 13 13 12 11 10 9 8 7 5 3 2 3 5 7 9 12 15 17 16 10 6 5 6 8 11 13 15 16 16 17 17 16 17 18 18 17 17 17 16 15 15 17 19 18 18 19 21 21 20 18 18 18 19 19 20 19 16 15 16 16 16 18 19 21 23 22 23 22 21 22 24 26 29 30 31 31 30
16 21 22 23 23 19 17 15 15 16 14 13 12 11 10 10 7 5 4 3 4 6 8 10 13 17 18 13 7 6 6 8 8 9 10 11 12 13 14 14 15 16 16 16 16 16 15 15 15 16 18 18 18 19 20 19 18 17 17 17 17 17 18 16 13 13 15 15 16 17 19 19 21 21 24 25 21 21 22 23 27 30 29 28 28
15 20 18 19 21 19 19 18 18 18 16 16 15 13 13 12 9 7 6 5 5 6 7 9 11 15 17 14 8 6 6 8 8 7 8 8 9 9 10 10 11 11 12 12 13 13 14 15 15 15 16 16 17 18 19 19 18 16 15 14 15 15 15 13 11 12 13 14 15 15 15 13 15 17 20 25 23 20 20 18 20 26 28 28 28
19 21 17 18 20 21 22 20 20 20 20 20 18 17 15 13 10 8 8 7 7 8 7 9 11 13 16 14 8 5 6 7 7 7 7 7 7 7 7 7 7 8 8 9 10 10 11 11 12 13 13 14 15 16 16 17 18 18 18 17 18 17 16 15 13 13 13 13 13 12 11 9 8 9 13 21 23 20 18 16 16 19 24 26 27
20 21 22 22 22 23 23 22 22 22 23 23 22 20 17 15 12 10 10 9 10 10 8 9 10 12 15 13 6 4 5 6 6 6 6 5 5 5 5 5 5 5 5 6 6 7 8 8 9 10 10 11 12 12 13 14 14 16 18 19 20 20 20 19 15 14 14 13 13 13 13 11 9 7 8 13 19 20 17 16 17 19 22 23 25
21 22 24 25 25 25 24 24 25 25 25 25 24 22 19 16 14 13 12 11 12 12 10 9 10 12 13 12 6 2 3 5 4 4 4 4 3 3 3 3 3 3 3 4 4 4 5 5 6 6 7 7 8 9 10 11 12 13 14 15 17 17 19 19 16 14 14 14 14 15 15 14 13 11 9 9 12 15 17 18 18 18 20 21 24
22 24 24 24 26 28 28 27 28 28 28 27 26 25 22 19 16 15 14 13 13 14 12 10 10 11 12 12 7 3 3 4 4 3 3 3 3 3 3 3 3 4 3 3 3 3 3 3 3 3 4 5 5 6 7 8 9 10 10 12 13 13 15 16 14 13 13 14 15 14 14 14 15 15 13 11 9 10 13 18 20 20 19 20 23
20 23 24 24 26 29 30 31 31 31 31 30 29 27 26 23 19 17 16 14 15 16 13 10 9 10 11 11 8 4 3 4 4 5 5 5 5 5 5 5 5 5 5 4 4 3 3 2 2 2 3 3 4 4 5 5 6 7 8 9 10 10 11 11 10 10 10 12 13 13 13 13 13 14 16 15 13 11 12 13 16 18 20 22 23
19 21 23 23 23 24 27 30 31 32 33 32 31 30 29 27 22 20 18 16 17 17 13 8 7 9 10 10 8 5 4 4 5 6 6 7 7 7 7 7 6 6 6 5 5 5 4 3 3 3 3 3 3 4 4 4 4 5 6 7 7 8 9 9 8 9 9 10 10 10 11 10 11 12 13 15 15 15 14 14 15 14 15 20 24
20 22 23 24 25 25 26 28 30 31 32 32 32 32 32 31 27 22 20 19 18 17 12 9 8 9 9 8 7 6 4 4 6 6 7 7 6 6 6 5 4 4 3 4 5 5 5 5 5 4 4 4 4 4 5 4 4 4 4 4 5 6 7 8 9 9 10 11 11 12 11 11 11 11 11 12 14 15 16 17 17 16 15 15 20
21 21 23 25 26 28 29 31 32 32 32 32 33 33 33 33 31 26 23 20 19 16 12 10 8 8 8 7 7 6 4 4 6 6 6 5 4 3 2 1 0 1 0 1 2 3 5 5 6 6 5 5 5 5 5 5 4 4 4 4 4 4 5 6 7 8 8 9 10 11 11 11 12 13 13 13 14 16 18 18 19 19 18 14 15
19 20 22 23 24 25 28 30 33 35 35 35 33 32 33 32 32 29 25 21 18 15 13 11 9 8 8 7 6 6 4 4 4 4 3 3 2 2 2 2 3 4 3 3 1 0 2 4 5 6 6 6 6 6 6 6 6 5 5 5 5 5 5 5 6 6 7 7 8 8 9 9 10 11 12 13 14 15 16 17 18 20 21 19 15
15 18 20 23 23 25 26 29 32 34 35 36 34 33 32 32 32 31 26 22 19 16 14 13 11 10 10 8 7 6 3 3 3 2 2 2 2 3 3 4 5 6 6 5 4 3 1 1 3 4 5 5 5 5 6 7 7 7 7 7 7 7 7 7 7 7 7 7 8 8 8 9 9 10 10 11 11 12 12 13 14 16 18 19 19
13 15 18 22 24 26 28 30 32 32 32 34 33 31 32 33 32 29 26 24 20 18 16 14 14 12 12 11 9 7 4 2 2 2 1 1 1 2 2 4 5 6 7 7 6 5 4 2 0 2 3 3 4 4 5 5 6 7 7 7 8 9 9 9 10 10 10 10 10 10 11 11 11 11 11 11 11 12 12 12 11 12 13 14 16
10 13 15 19 22 24 26 26 28 29 29 30 31 30 31 33 31 29 27 25 21 19 18 16 16 15 14 13 11 8 6 3 2 2 3 3 3 2 1 1 3 5 6 7 7 7 6 5 3 2 1 1 1 1 2 3 3 4 5 6 6 7 8 9 9 10 11 12 12 13 13 14 14 14 14 14 14 14 14 14 14 13 13 12 13
7 9 11 13 17 20 20 20 22 24 25 27 29 29 30 31 31 30 28 26 23 21 19 18 17 17 15 15 13 11 8 5 5 5 5 5 6 5 4 2 1 1 3 4 6 7 7 6 5 4 3 2 2 1 1 0 1 1 2 3 4 5 6 6 7 8 9 10 11 12 13 13 14 15 16 16 16 17 16 16 17 16 16 15 15
6 7 9 10 11 14 15 17 18 20 22 26 28 30 30 31 31 32 31 28 25 22 21 20 19 19 17 17 15 13 11 9 9 9 8 9 9 8 7 6 4 3 2 2 3 4 5 5 5 5 4 3 2 1 1 1 1 1 2 3 4 5 6 6 6 7 7 7 8 9 10 11 12 13 14 15 15 16 16 16 16 16 16 16 16
6 7 8 9 9 10 10 13 16 19 21 25 29 31 30 30 33 35 34 31 27 23 22 22 21 20 19 19 18 16 14 13 13 13 12 12 11 11 10 9 8 6 5 4 3 2 2 2 3 3 3 3 2 2 2 2 2 2 3 4 4 6 6 7 8 8 8 8 8 8 9 9 10 10 12 12 13 14 14 14 14 14 14 14 14
7 9 9 10 10 8 7 7 9 15 21 25 28 31 30 31 35 36 34 32 30 27 26 25 23 22 21 21 21 21 19 17 17 16 15 14 14 13 13 13 12 10 8 7 7 6 4 3 2 2 3 3 2 2 3 3 3 4 4 5 5 6 7 8 9 10 10 10 10 11 11 11 11 10 10 11 11 12 12 13 12 13 13 13 13
8 9 9 9 10 10 8 5 4 7 14 21 25 28 31 35 36 35 34 34 33 31 29 28 26 25 24 24 26 26 23 20 19 18 17 17 16 16 16 16 15 14 12 11 10 10 9 7 5 4 4 5 5 4 4 4 4 5 5 6 6 6 7 8 9 11 12 13 13 13 13 13 14 13 13 12 12 12 13 13 13 13 14 14 15
8 9 10 10 9 10 9 8 9 9 10 14 18 22 26 31 35 35 34 34 33 33 32 30 28 27 27 28 30 29 26 24 22 20 19 19 18 17 17 18 18 17 16 14 14 13 12 12 11 9 8 7 8 8 7 7 7 8 8 8 8 8 8 8 9 10 11 13 14 14 14 15 15 16 16 16 15 15 15 15 15 15 16 17 17
8 10 11 11 10 9 8 8 12 17 17 16 16 16 16 19 26 32 35 35 35 35 34 32 32 32 33 33 33 31 29 27 25 23 22 21 21 20 18 18 20 20 19 18 18 18 17 16 16 15 13 12 11 11 11 11 11 12 12 13 13 13 13 12 12 12 12 13 14 15 15 16 17 18 19 19 19 18 18 18 18 18 18 19 20
9 11 13 13 12 11 10 9 10 15 20 22 23 24 23 20 19 22 29 33 36 37 36 35 35 36 37 37 35 33 31 31 30 29 28 26 24 23 22 20 20 21 22 22 22 22 21 20 20 19 18 17 16 15 16 16 15 15 16 16 17 17 18 18 17 17 16 16 16 16 16 17 18 19 20 21 22 22 22 22 21 21 21 22 22
12 13 14 16 16 13 13 12 11 13 15 19 24 28 32 32 28 26 25 26 29 32 32 34 36 37 37 36 34 34 34 34 34 33 32 30 27 26 26 24 22 21 22 23 23 24 25 25 24 23 22 21 21 20 20 20 20 20 20 20 20 20 21 22 22 22 22 22 22 21 21 21 21 21 22 23 24 24 25 25 25 25 25 25 25
14 16 17 18 19 17 14 12 12 13 14 15 18 21 26 32 33 33 33 32 33 31 29 29 30 31 32 32 31 32 35 37 38 37 35 32 30 30 30 29 26 25 26 27 26 25 27 28 28 27 26 24 23 23 23 23 24 24 24 25 24 23 24 25 25 26 26 27 27 27 27 27 26 25 24 24 24 25 26 27 27 27 28 28 28
17 18 19 20 20 19 17 13 11 11 11 12 13 15 18 21 24 27 30 33 35 36 34 32 30 28 30 33 34 33 32 33 36 35 32 29 29 30 30 30 30 29 30 32 32 29 29 30 29 29 29 27 26 25 26 26 27 26 27 28 28 28 28 28 28 28 28 28 29 30 31 31 30 29 28 26 26 26 26 27 28 29 29 30 30
20 21 22 23 22 21 19 17 14 13 11 11 11 12 12 13 14 15 18 22 25 28 32 35 35 34 35 38 38 34 27 24 24 23 22 21 22 24 25 28 32 32 31 33 36 35 32 30 29 30 32 31 30 29 29 30 30 29 29 30 31 31 31 31 30 30 30 29 30 32 32 32 32 31 31 30 28 28 27 27 28 29 30 30 31
22 23 24 26 25 23 21 19 18 17 16 15 14 13 13 13 13 12 13 14 16 18 23 28 32 33 33 32 31 27 23 20 18 17 18 18 18 18 21 25 30 32 31 32 36 39 36 31 30 32 34 35 34 33 33 34 33 32 32 32 33 33 33 33 32 31 31 31 31 32 32 32 32 33 33 33 33 32 30 29 29 30 31 32 32
22 22 23 25 26 24 22 21 20 20 20 20 19 18 18 17 17 16 15 15 15 16 18 21 24 26 27 28 29 27 26 26 25 25 27 26 23 21 23 26 28 30 31 31 34 38 38 33 31 35 37 38 38 39 38 37 35 34 35 35 36 36 35 35 34 33 32 31 32 33 34 35 35 35 36 36 36 36 35 32 30 30 31 32 33
23 27 26 24 25 25 23 23 22 22 22 22 22 22 22 21 20 20 19 18 18 17 17 18 19 20 22 24 25 25 25 25 26 26 28 29 28 26 26 28 30 30 30 30 31 34 36 33 33 38 40 40 41 43 42 40 37 36 38 38 37 37 37 36 36 35 34 33 33 35 37 39 38 37 36 37 38 39 38 35 33 32 33 34 34
24 30 29 26 26 26 25 25 23 23 23 23 23 23 24 24 23 22 22 21 20 20 20 21 21 21 21 22 23 23 23 23 24 24 25 26 27 28 29 31 33 34 32 31 31 32 32 32 35 39 40 40 43 44 44 43 41 40 41 40 39 39 39 38 38 37 36 35 37 38 40 41 39 37 36 38 39 38 37 36 36 35 35 35 36
24 30 30 27 28 28 26 25 24 25 25 25 24 24 24 24 24 24 24 23 22 22 22 22 22 23 24 24 25 25 25 26 26 26 28 29 30 31 33 34 36 37 36 35 33 32 32 32 34 35 36 39 43 45 45 46 45 43 43 43 42 42 42 40 38 36 36 38 40 41 41 40 39 37 38 40 40 39 38 37 37 37 36 36 36
24 29 30 29 30 29 27 25 25 26 27 26 25 25 24 24 23 23 24 24 23 23 23 22 22 23 24 24 26 27 27 28 28 29 30 31 32 33 34 35 35 36 38 38 37 36 35 35 36 34 34 39 41 39 39 41 41 41 42 42 42 42 40 38 36 36 37 39 40 40 40 39 39 40 40 41 41 41 40 39 39 38 38 37 36
24 28 30 31 32 31 29 27 26 28 28 27 27 26 25 25 24 24 24 23 23 23 23 23 23 23 24 25 26 27 28 28 29 29 31 31 32 33 33 33 34 35 37 37 37 37 37 37 38 36 37 41 40 34 31 33 35 37 38 38 39 40 38 36 37 39 40 39 38 38 38 39 41 43 43 43 42 41 40 40 40 40 39 39 38
22 28 31 32 32 31 30 29 28 28 28 27 29 28 27 27 26 25 24 24 24 24 23 24 24 24 25 26 26 27 27 27 27 28 29 29 30 31 31 31 31 33 34 35 35 35 35 35 35 35 37 41 39 32 31 33 34 35 36 36 38 38 37 37 39 40 39 38 37 37 38 40 42 43 44 43 42 39 38 38 38 38 39 40 40
21 28 32 33 32 30 31 31 30 29 29 29 30 29 28 27 26 25 25 24 25 25 25 26 25 25 26 27 27 27 27 27 27 27 27 27 28 29 29 29 29 30 31 32 32 33 33 33 33 33 36 39 35 30 31 34 35 36 37 37 37 37 37 38 39 38 37 37 37 38 39 42 43 43 43 42 40 37 37 37 38 39 40 41 42
24 28 30 31 32 32 33 33 31 30 30 31 31 30 29 28 26 25 25 26 27 28 28 29 29 29 29 28 28 27 27 27 27 27 27 28 28 29 30 30 30 30 31 31 32 31 30 30 32 33 36 37 33 30 32 35 36 38 38 37 36 36 36 38 38 38 38 38 38 40 41 42 42 41 41 41 39 38 38 40 41 42 43 43 44
21 19 17 20 27 32 33 33 32 31 31 32 32 31 30 29 27 27 27 28 29 30 30 31 31 32 32 30 29 28 27 26 25 25 26 27 28 29 30 30 31 32 32 31 32 31 29 28 30 33 36 35 31 29 33 36 36 37 37 35 34 35 36 38 40 41 40 40 40 41 41 40 39 39 39 40 40 40 40 42 43 45 45 46 46
18 14 11 16 26 31 31 31 32 32 32 32 32 32 31 30 29 29 30 31 32 32 32 32 32 34 34 33 31 29 28 27 26 26 27 27 28 29 29 30 31 32 32 32 32 32 29 28 31 35 35 33 30 30 34 36 36 36 35 34 34 35 37 39 41 41 41 40 41 41 40 39 38 39 40 41 42 43 43 44 45 46 47 47 48
15 13 13 19 29 31 29 30 32 32 33 33 33 33 33 32 32 32 33 34 35 35 34 34 34 35 35 34 34 33 32 31 31 31 31 31 31 30 31 31 32 32 32 32 31 30 29 30 33 34 33 31 30 32 35 36 36 35 35 35 35 36 37 38 39 38 38 40 40 39 40 40 40 41 43 44 45 46 46 47 47 47 48 48 49
15 16 16 22 29 31 31 32 33 33 34 35 35 35 35 35 34 35 37 38 39 38 36 36 36 37 37 36 36 36 36 36 35 35 35 34 33 32 32 32 32 32 31 30 28 28 30 33 32 31 31 32 33 34 36 36 35 35 35 36 36 36 36 37 37 37 39 40 39 38 40 41 43 44 46 47 48 48 49 50 50 50 49 49 50
16 20 25 28 31 33 33 34 34 35 35 35 36 37 37 37 38 39 40 41 41 40 39 39 39 40 40 40 40 39 38 38 37 37 36 35 35 34 34 33 32 32 30 28 27 29 32 34 32 31 33 35 35 35 35 36 35 36 38 37 36 36 36 36 37 39 40 40 39 39 41 44 45 47 48 49 50 50 50 51 51 51 51 50 50
22 25 29 31 33 35 36 36 36 37 37 38 39 40 40 41 42 43 43 43 42 42 42 42 43 44 44 44 43 41 39 38 37 37 36 36 36 36 35 34 32 31 30 29 29 31 33 33 32 32 34 35 35 34 35 36 37 38 40 38 36 35 35 36 38 39 39 38 38 40 43 46 47 48 49 49 50 50 50 50 50 50 51 51 51
32 33 34 36 37 38 37 37 38 38 39 40 42 43 44 45 45 45 45 45 44 44 44 45 45 45 45 45 44 42 40 39 39 39 39 38 37 38 37 35 33 31 30 29 29 32 34 34 33 33 34 34 35 36 38 40 40 40 39 38 36 36 36 37 38 38 37 38 40 43 45 46 47 47 47 48 48 49 49 50 50 51 51 51 52
30 31 33 35 38 39 40 40 40 39 40 41 42 43 45 45 45 46 46 46 46 46 46 46 46 45 44 44 43 42 42 42 43 43 42 40 39 38 36 34 33 32 31 30 31 33 34 33 33 33 34 34 36 38 40 40 40 39 37 35 35 35 36 36 36 37 38 40 42 43 44 44 44 45 45 46 47 48 49 50 51 51 52 52 53
28 28 28 28 31 37 42 43 43 43 43 44 44 45 46 46 45 45 46 47 47 47 47 48 47 47 46 45 44 44 44 44 45 44 42 40 39 37 35 34 33 32 31 31 32 33 32 31 34 36 37 38 38 38 39 38 36 34 32 31 32 33 33 34 35 37 39 40 41 41 41 42 42 43 44 46 47 48 49 50 51 51 52 52 53
29 29 29 28 29 33 39 41 42 44 45 45 45 46 46 47 48 48 47 47 48 47 47 48 47 47 46 45 44 44 43 42 43 41 38 36 37 36 35 34 33 32 32 33 33 33 31 33 37 39 38 38 39 39 39 38 35 31 27 27 29 32 33 34 35 36 37 37 38 39 39 41 42 43 44 45 46 47 48 48 49 50 51 51 51
29 28 29 31 32 33 36 37 37 39 41 41 42 41 40 40 43 44 43 44 46 47 46 45 44 44 42 41 41 40 38 36 37 36 34 34 35 34 33 32 31 32 33 32 31 31 32 34 36 37 36 37 38 38 36 32 29 26 24 26 29 30 31 32 32 33 34 35 36 37 39 40 41 42 43 43 44 45 46 46 47 48 48 48 49
30 30 32 35 36 37 39 39 39 39 40 40 40 38 35 33 33 34 34 36 40 43 42 40 39 38 37 36 35 34 32 32 33 33 34 33 33 32 32 31 31 32 31 29 28 30 32 34 36 36 36 35 34 32 29 26 24 24 24 25 26 27 27 28 29 30 32 33 34 35 36 37 39 40 41 41 42 43 43 44 44 45 45 46 46
34 36 38 38 39 39 40 41 41 41 40 41 42 41 39 35 32 30 29 30 33 35 36 35 34 33 32 31 30 29 30 31 32 33 32 31 31 31 31 29 29 29 27 26 28 29 30 31 32 33 32 30 27 25 23 22 21 21 22 22 23 23 24 26 28 29 31 32 32 33 34 35 37 38 39 39 40 40 41 41 41 41 42 42 42
37 38 39 39 39 39 39 40 40 40 40 41 41 40 39 36 34 34 33 32 32 33 33 33 32 31 30 29 27 28 30 31 31 31 31 30 29 29 27 26 26 25 24 24 28 29 28 29 31 30 28 25 22 19 17 17 18 18 19 20 21 22 24 25 27 28 29 30 30 31 33 34 35 36 37 37 38 38 38 37 38 38 37 37 37
Wind_Direction
212 206 216 216 203 200 209 218 223 226 226 225 230 231 234 240 236 235 259 306 323 330 344 349 348 347 348 334 287 268 258 244 240 240 239 240 240 244 249 251 252 254 257 259 263 264 263 263 265 264 260 258 260 259 256 253 248 244 246 248 250 252 251 245 243 252 260 265 270 269 265 261 254 241 231 224 220 226 231 232 235 238 238 237 239
207 207 215 209 201 208 225 232 234 237 236 238 241 239 241 243 237 234 244 265 294 315 334 343 347 344 343 338 304 276 268 258 249 245 244 243 243 245 250 253 252 254 257 259 261 264 264 263 263 265 263 261 260 259 257 256 256 249 243 243 248 250 248 243 245 258 267 274 278 276 274 273 269 258 239 226 215 216 226 228 228 229 232 234 236
209 222 223 208 210 225 234 234 240 244 244 247 249 247 248 246 240 235 240 256 272 294 320 332 342 340 339 337 312 279 272 268 258 248 244 241 242 243 245 249 251 254 257 258 260 261 262 263 262 263 264 262 261 262 263 263 264 260 250 246 250 250 248 250 259 266 271 280 280 274 277 283 284 273 244 226 215 211 220 230 228 225 228 234 236
221 230 222 214 221 228 234 236 240 245 247 250 251 253 251 245 243 237 239 252 263 276 301 320 334 336 334 334 314 277 276 274 260 249 242 238 238 237 240 244 248 252 255 257 260 260 260 261 261 260 261 262 263 263 264 264 265 266 264 262 263 265 267 270 273 275 278 284 280 272 279 296 304 288 248 227 217 216 225 230 227 224 226 231 233
226 228 214 213 219 224 232 237 240 244 247 250 252 253 251 244 239 236 240 250 258 268 286 310 328 331 331 335 322 281 289 280 261 248 238 235 233 230 235 238 243 248 252 256 260 261 261 259 258 257 256 254 256 259 261 263 264 264 266 265 266 268 273 277 278 277 281 282 278 277 281 286 286 277 261 237 222 225 233 224 219 224 227 227 229
219 224 218 214 216 221 226 231 237 241 244 247 250 249 246 241 236 236 242 249 256 264 276 300 323 326 329 337 333 311 310 295 279 257 232 224 217 216 231 238 251 258 256 259 258 260 263 258 253 253 252 248 246 249 252 254 255 258 264 267 268 266 268 274 278 277 278 276 274 278 280 277 272 265 262 253 234 234 238 229 228 234 234 231 228
217 220 221 218 218 222 225 228 232 237 241 243 245 246 243 238 235 237 242 249 258 263 270 289 312 319 326 335 337 345 335 311 299 278 250 239 237 240 256 262 271 274 272 270 262 265 264 258 254 241 241 244 240 241 245 251 256 258 258 260 265 267 266 269 274 273 270 269 269 273 276 274 272 267 260 257 255 258 250 240 242 245 240 236 232
224 221 224 227 225 224 226 229 231 234 238 239 241 243 241 237 234 236 241 247 256 262 269 283 301 310 319 329 332 338 338 319 301 283 267 259 260 268 277 280 281 275 272 269 263 265 264 262 265 246 237 237 234 237 244 250 256 258 255 255 262 266 266 266 267 269 268 268 268 267 269 270 270 269 267 261 257 265 265 256 257 255 243 236 234
233 229 230 234 234 231 230 232 233 235 236 236 238 239 238 237 235 234 239 244 252 261 267 268 281 298 307 321 329 332 333 317 299 282 270 268 271 276 281 284 284 276 268 263 258 257 257 259 261 258 254 245 243 245 249 249 248 252 255 256 259 257 257 258 255 257 259 260 262 257 256 257 257 263 267 260 254 256 259 259 265 270 258 242 235
236 236 236 237 238 240 239 238 237 237 237 237 236 235 234 235 235 233 235 242 250 258 259 248 257 282 293 311 327 330 332 320 305 287 274 274 277 278 279 278 278 276 268 262 258 254 253 254 253 255 254 253 255 255 257 261 254 250 251 249 250 247 246 246 246 248 249 249 250 249 248 245 243 247 250 248 248 251 252 253 255 262 270 263 248
236 237 239 241 241 243 245 246 243 241 240 239 237 234 232 232 234 234 233 239 248 250 241 234 242 263 277 295 316 325 330 323 312 292 274 270 270 266 263 256 205 100 51 279 265 260 258 256 254 255 254 254 257 260 265 270 270 265 261 255 247 241 239 239 240 242 243 244 246 247 247 245 243 244 247 248 249 249 248 250 251 250 255 266 268
235 237 239 242 243 245 248 251 251 248 244 243 240 236 233 231 230 232 232 232 235 233 225 225 232 248 263 271 293 313 332 337 325 300 259 225 195 174 146 123 107 101 95 90 86 275 261 260 259 258 258 258 257 262 266 271 276 274 270 270 266 257 251 247 245 243 241 241 242 243 242 242 243 245 249 252 253 255 254 253 253 251 251 254 264
239 242 245 245 246 248 250 254 256 255 248 244 241 237 234 229 227 228 227 222 222 220 219 224 226 235 247 253 269 290 314 350 349 319 243 195 170 152 135 117 108 100 94 90 89 82 72 260 260 259 260 262 261 264 269 271 275 277 276 275 274 272 267 262 259 254 250 247 244 244 243 241 243 245 248 250 251 256 258 257 256 254 253 253 256
252 253 254 253 254 254 256 259 258 253 245 239 237 236 233 228 225 223 220 216 215 215 218 221 222 227 235 243 255 266 278 327 9 353 305 257 201 155 134 113 107 100 93 85 82 79 70 62 10 271 264 265 266 264 267 271 274 278 280 279 276 275 273 270 268 265 261 259 255 254 254 252 252 252 253 252 253 256 257 257 259 257 253 253 254
267 265 263 261 261 263 262 258 251 243 237 232 231 230 230 229 223 214 211 211 210 214 218 218 220 223 226 236 245 250 257 277 313 328 308 283 270 254 235 112 101 94 91 85 79 77 72 64 57 43 24 325 299 279 268 267 271 278 284 288 290 287 286 283 280 277 273 269 266 263 262 261 262 262 262 262 261 262 263 262 261 260 256 252 252
286 284 284 277 273 274 264 247 240 237 231 226 225 226 228 227 217 205 205 208 210 214 217 217 220 220 221 232 237 237 244 261 277 288 291 284 278 274 274 275 276 53 73 80 79 77 75 70 64 57 51 44 41 22 348 326 288 306 314 315 319 320 318 314 306 300 293 287 281 275 272 270 268 267 267 268 268 267 268 269 268 267 265 260 257
305 302 308 308 298 287 264 239 235 234 227 222 221 224 229 225 211 200 201 205 209 213 214 216 218 216 221 229 231 233 241 254 266 272 275 276 272 270 271 273 274 285 317 6 57 73 76 74 70 65 63 54 49 44 27 20 14 10 357 349 345 342 341 339 333 327 319 311 303 293 286 281 277 275 273 271 272 271 269 269 269 269 268 266 262
320 319 322 330 327 303 266 241 236 231 225 222 222 225 228 220 204 199 201 204 206 209 210 213 215 217 222 225 226 232 241 253 263 266 268 268 265 265 263 264 266 266 273 290 305 337 33 60 59 53 55 54 42 27 10 355 360 360 349 346 342 339 337 334 333 332 329 326 321 313 304 295 287 281 279 277 275 274 274 271 270 270 269 269 266
316 320 325 332 337 324 283 251 247 242 232 227 227 227 221 208 200 200 203 204 204 207 209 210 214 218 220 220 224 231 240 252 261 262 262 262 263 264 262 260 260 259 261 269 281 292 300 306 333 348 352 5 9 1 356 350 349 347 342 341 338 336 334 330 328 326 324 323 322 320 317 310 304 294 286 282 278 276 275 272 271 269 268 267 267
304 311 316 321 334 334 308 268 264 265 246 233 227 222 212 203 200 201 204 205 205 206 208 210 214 216 216 218 225 231 237 245 251 256 258 261 262 263 264 263 260 258 258 261 267 274 279 283 285 288 299 311 316 318 322 324 327 327 326 328 329 331 331 328 325 322 320 318 316 315 314 311 309 305 298 291 286 282 279 275 273 272 270 268 268
294 300 302 305 317 330 324 286 254 249 252 240 225 217 212 207 206 205 204 205 206 208 209 211 214 214 215 222 228 232 239 242 243 247 251 257 261 261 264 267 265 263 261 262 266 266 268 274 278 280 280 286 295 300 304 305 309 311 312 314 315 317 319 319 317 317 316 315 313 311 309 307 305 303 300 296 291 286 282 279 277 275 275 274 272
289 290 288 291 294 301 313 298 260 241 238 240 234 231 232 225 218 213 209 206 209 211 211 212 214 214 219 226 230 234 240 242 243 244 245 249 256 258 261 265 268 269 268 269 270 268 268 270 272 275 276 277 281 286 292 296 299 302 304 307 310 311 313 314 313 312 311 312 313 312 310 310 308 305 302 299 295 290 285 281 279 276 275 274 273
282 282 279 278 280 279 278 282 272 251 241 236 234 239 251 255 249 236 221 212 213 214 212 212 213 216 222 227 232 237 240 240 242 244 244 244 247 251 255 259 263 268 269 270 271 271 272 271 270 272 273 274 276 278 283 287 290 294 296 299 303 306 310 312 311 312 312 312 312 311 311 312 311 310 307 302 298 294 290 285 282 280 277 276 275
274 274 274 270 270 270 266 262 259 257 252 242 236 238 245 249 253 256 247 233 227 223 218 217 217 220 225 231 237 243 244 242 241 242 242 244 245 247 249 250 251 257 263 266 268 269 272 272 272 272 272 273 275 276 278 280 283 287 289 290 294 297 301 305 306 307 307 308 309 308 307 308 308 309 308 305 301 297 294 290 287 284 282 280 279
267 268 268 266 265 264 262 257 248 246 247 246 241 237 238 239 242 248 251 249 245 239 230 226 226 230 234 237 242 247 246 245 245 242 238 238 242 245 248 250 251 255 260 263 264 265 269 272 273 275 276 277 278 277 276 277 278 281 283 286 288 290 293 297 300 302 302 302 303 304 304 303 302 303 303 302 300 298 295 293 290 287 285 284 283
259 264 266 264 261 259 258 255 252 248 243 241 241 238 236 237 238 240 243 246 247 245 239 236 238 243 244 244 250 254 252 250 251 249 242 238 242 246 249 254 257 258 260 264 266 265 266 270 273 275 277 279 279 278 277 275 276 276 278 280 283 285 288 291 295 297 298 299 299 300 301 300 299 299 299 297 296 295 294 292 290 288 287 285 284
255 260 263 262 259 256 253 253 255 257 255 250 245 243 241 242 244 242 240 241 243 244 242 239 241 245 248 249 252 255 255 256 260 261 255 250 251 253 254 256 257 256 257 261 263 262 262 264 267 272 277 279 278 276 275 275 275 273 273 276 279 281 283 286 290 294 295 296 297 297 298 297 296 295 295 294 292 291 291 290 288 286 285 284 283
253 254 255 257 257 256 255 256 259 262 263 262 259 257 255 254 255 253 248 245 244 242 240 238 240 244 247 247 245 243 243 247 254 262 260 255 255 261 265 263 259 256 256 258 259 258 257 258 259 265 273 276 276 277 276 274 274 273 273 274 276 278 280 282 285 289 292 294 295 296 296 297 296 294 291 291 291 290 288 288 288 286 284 283 282
256 255 254 254 255 258 261 264 266 267 267 267 267 266 266 264 263 261 258 255 251 246 241 240 241 243 245 245 246 248 249 249 254 265 268 262 257 262 268 267 264 260 257 259 259 256 256 257 258 262 268 272 274 276 277 275 276 278 278 276 274 275 279 282 283 284 287 290 293 296 297 297 297 294 290 288 290 290 286 284 285 286 284 282 281
261 264 264 263 261 263 266 267 268 268 267 268 269 270 269 269 267 266 264 260 258 255 253 250 248 248 249 251 254 257 258 257 259 265 267 262 258 259 262 263 265 264 259 260 262 260 259 261 261 262 265 267 268 272 276 277 279 280 279 278 276 275 278 281 282 282 283 286 291 295 297 296 295 292 289 288 290 291 287 281 280 284 285 282 279
256 265 269 270 269 267 266 267 268 267 266 267 267 268 269 268 268 267 266 265 263 261 258 256 255 254 254 255 256 257 257 258 257 258 258 257 256 256 257 258 261 263 262 261 263 264 264 264 263 262 261 261 264 271 276 276 275 276 275 276 278 277 276 279 281 280 281 285 290 294 296 295 292 288 287 288 290 291 287 281 278 282 286 284 281
251 265 270 270 269 268 266 266 265 263 262 263 263 264 265 266 267 268 270 271 271 269 266 264 262 260 259 257 256 256 255 255 255 254 254 254 254 254 255 256 258 260 261 262 263 264 264 264 264 263 262 262 267 273 274 272 271 273 274 275 278 277 275 276 277 276 278 285 289 293 294 292 290 288 287 288 289 290 287 282 278 280 282 282 281
245 260 268 268 269 268 266 264 261 259 258 258 258 258 259 261 264 267 270 273 273 273 273 272 269 266 264 261 259 259 258 257 257 257 256 257 257 258 258 259 260 261 261 262 261 262 263 265 265 265 266 267 270 274 275 273 271 271 271 273 274 274 273 273 273 273 278 283 287 290 290 288 288 289 289 289 289 289 288 285 282 280 280 278 276
237 253 262 267 268 268 267 265 260 257 257 256 255 254 256 258 261 265 268 270 270 270 271 270 268 266 265 263 261 261 261 261 260 259 260 260 260 261 262 262 263 264 264 265 264 264 264 265 264 265 266 266 268 273 276 273 270 268 267 268 268 269 269 270 271 275 280 284 285 284 284 285 287 289 290 290 289 290 289 288 286 284 282 280 277
233 249 256 263 267 266 266 266 261 258 255 252 252 253 255 257 260 263 266 266 267 268 266 265 263 261 260 258 257 257 258 259 260 260 261 262 263 264 265 265 266 266 267 269 270 269 268 267 267 268 267 267 268 272 273 271 269 267 266 265 265 266 266 268 272 277 281 283 281 279 280 283 286 288 289 289 290 291 291 291 290 288 286 284 283
235 250 254 259 263 264 265 264 260 257 252 249 250 252 253 257 260 262 264 266 267 267 265 264 262 259 257 255 255 255 255 257 259 261 262 265 266 268 269 269 269 269 269 270 270 271 272 271 270 268 267 269 270 272 272 270 268 266 265 265 265 265 266 268 273 278 280 279 277 278 281 285 286 286 286 286 288 291 294 294 293 292 289 287 287
244 253 256 257 258 260 263 262 258 254 250 249 250 251 253 256 259 261 265 267 269 268 267 266 265 263 261 260 258 259 259 260 261 263 265 267 269 271 271 272 272 272 272 271 271 272 271 269 267 266 266 268 270 270 270 270 267 266 265 265 264 266 268 271 276 279 279 277 276 279 282 284 284 285 285 285 288 294 296 296 295 293 292 291 290
240 253 257 255 256 257 259 260 257 253 250 249 250 252 254 257 259 263 267 270 270 269 266 264 264 264 264 263 262 262 264 265 266 267 269 270 272 273 274 274 274 274 274 273 272 271 270 268 266 263 263 266 269 268 267 267 267 265 263 262 263 267 269 273 277 278 279 279 280 281 282 282 281 283 285 288 292 296 296 295 294 293 293 293 293
237 254 256 253 257 259 258 258 255 252 251 251 253 255 256 257 259 263 267 270 270 267 263 261 260 261 262 262 262 262 264 267 271 274 277 279 280 281 280 279 278 277 276 275 272 271 271 267 263 261 262 265 266 264 263 264 264 264 263 263 265 268 270 273 276 276 278 281 283 284 283 282 282 285 288 291 294 295 294 293 293 293 293 292 292
248 259 260 257 257 258 257 254 252 252 253 254 256 257 258 259 261 264 268 270 269 267 263 261 260 260 260 260 261 263 264 267 272 276 281 284 287 288 286 284 282 280 277 275 274 272 268 261 259 262 265 264 262 261 261 261 262 263 264 264 265 268 272 275 276 276 278 280 283 285 286 285 287 291 293 294 294 293 293 293 292 292 291 290 289
255 256 259 260 258 257 257 255 255 255 255 256 257 259 260 261 264 267 270 271 271 268 265 263 263 264 264 264 264 265 266 269 272 276 280 285 288 289 288 285 281 278 275 272 270 267 260 256 259 265 267 265 263 262 262 262 264 265 266 265 264 267 272 274 273 275 278 280 282 286 288 289 291 294 294 294 293 292 292 292 292 291 290 289 287
262 257 257 259 259 257 257 258 259 259 260 261 262 262 263 265 267 269 270 270 270 268 267 267 269 270 270 269 267 267 269 270 271 275 280 284 287 289 286 281 276 272 269 265 260 257 256 258 262 264 264 264 264 262 260 260 262 263 265 265 265 268 271 271 271 274 277 280 283 287 289 290 293 293 293 292 292 291 291 290 289 289 288 287 285
259 258 258 259 260 258 258 259 260 261 262 263 264 265 266 267 267 267 268 267 267 267 267 269 271 273 274 273 271 272 273 272 273 277 281 284 286 285 281 275 270 266 261 257 256 258 261 263 263 260 259 262 264 261 257 255 256 259 261 263 266 269 269 270 273 276 279 281 284 287 289 291 292 292 291 291 291 290 290 289 289 288 287 287 286
258 258 258 258 259 260 262 263 263 264 265 265 265 265 265 265 266 266 266 265 265 266 267 269 271 272 273 273 273 273 274 274 278 282 284 284 284 280 274 270 264 260 258 257 258 260 261 260 258 257 260 263 264 260 254 252 252 255 258 261 264 267 269 272 276 279 281 283 286 288 289 290 290 290 291 292 292 292 292 292 292 292 291 290 289
266 264 263 261 261 262 264 264 264 266 267 267 267 267 266 267 267 267 267 266 267 268 269 270 271 271 272 273 273 273 274 276 281 283 284 284 280 273 268 264 259 257 258 258 256 256 257 257 257 256 257 259 260 257 253 250 250 251 254 258 262 267 271 275 278 280 283 286 288 289 290 291 291 292 293 293 293 293 293 293 292 292 291 290 290
272 271 271 269 268 268 268 267 267 268 269 269 269 269 269 269 268 268 268 268 268 269 269 270 270 271 272 272 273 273 274 277 279 281 281 279 272 266 262 259 257 257 257 253 251 252 253 254 254 253 252 253 255 254 252 250 249 249 251 258 265 271 275 277 279 282 286 289 290 291 292 293 293 293 293 293 292 292 291 291 290 289 289 288 287
273 273 274 273 274 274 273 272 271 271 271 271 271 271 271 271 271 271 270 269 270 270 270 271 270 270 271 271 272 273 274 275 276 277 274 269 265 263 261 256 254 255 253 249 249 251 250 249 251 253 253 254 253 250 247 246 247 249 254 262 268 272 274 277 281 286 289 290 292 293 294 294 293 293 292 292 291 290 289 289 288 287 286 285 285
271 272 273 272 272 272 273 272 271 271 271 271 272 272 272 271 272 272 270 269 271 271 271 271 271 271 272 273 273 273 271 268 267 267 264 262 262 261 256 250 247 248 247 246 248 250 250 250 251 252 253 254 252 248 244 242 244 251 259 265 269 272 277 282 287 290 292 293 294 294 294 293 292 292 292 291 291 290 289 288 287 286 286 285 284
270 270 270 270 270 271 271 270 269 269 268 268 269 269 269 269 269 269 268 268 269 269 269 269 270 271 273 271 268 267 264 261 259 259 259 261 260 255 249 244 242 244 246 246 248 250 251 253 253 251 250 250 248 245 243 241 245 254 262 268 273 280 286 290 292 293 293 293 292 292 292 293 293 294 294 294 293 292 291 290 289 288 287 286 285
270 269 269 270 271 272 271 270 270 269 268 268 268 267 267 266 265 265 267 266 264 264 265 266 268 269 269 266 263 261 259 257 257 258 258 260 257 252 246 242 240 241 242 243 247 251 252 252 249 243 240 238 235 235 239 245 251 259 267 274 281 287 290 291 292 292 291 290 291 293 296 297 298 298 298 297 296 295 293 291 290 288 287 286 285
270 270 270 271 271 271 270 269 269 267 266 266 267 267 268 266 265 264 265 262 260 259 261 262 263 263 263 263 262 259 258 257 257 257 258 259 256 249 241 236 235 238 241 244 247 246 242 239 237 232 229 228 228 233 242 252 261 269 276 282 286 289 290 290 289 289 290 293 297 300 302 302 302 302 301 300 299 297 295 294 292 290 288 286 285
Height
3110 3111 3113 3114 3115 3116 3116 3117 3118 3120 3121 3122 3123 3124 3124 3125 3126 3126 3126 3126 3126 3126 3126 3125 3125 3124 3124 3123 3123 3122 3122 3122 3121 3121 3121 3122 3123 3123 3123 3124 3124 3124 3124 3124 3125 3125 3126 3128 3128 3128 3128 3130 3131 3131 3131 3131 3130 3131 3132 3133 3133 3134 3135 3134 3135 3136 3137 3138 3139 3140 3141 3141 3141 3141 3142 3142 3142 3144 3145 3147 3148 3149 3150 3152 3152
3107 3109 3111 3112 3112 3114 3115 3116 3117 3118 3120 3121 3122 3123 3124 3124 3125 3125 3126 3126 3126 3125 3125 3125 3125 3124 3123 3123 3122 3122 3121 3121 3120 3121 3121 3121 3121 3122 3122 3122 3123 3123 3123 3124 3124 3124 3125 3125 3126 3126 3127 3128 3129 3130 3130 3129 3128 3129 3130 3132 3132 3132 3133 3133 3133 3134 3135 3136 3137 3138 3138 3138 3138 3138 3140 3140 3140 3141 3143 3145 3145 3146 3148 3148 3149
3105 3106 3107 3108 3110 3113 3114 3115 3116 3117 3119 3120 3121 3122 3123 3123 3124 3124 3125 3125 3126 3125 3125 3125 3125 3124 3123 3122 3122 3121 3121 3120 3120 3120 3120 3120 3121 3121 3121 3122 3122 3122 3122 3123 3123 3123 3124 3124 3124 3125 3125 3126 3127 3127 3128 3128 3128 3128 3129 3129 3130 3130 3131 3131 3132 3133 3134 3135 3136 3137 3137 3136 3136 3135 3136 3137 3139 3140 3141 3142 3142 3144 3146 3146 3148
3107 3106 3107 3107 3110 3112 3113 3114 3116 3116 3118 3118 3119 3120 3121 3122 3123 3124 3124 3125 3125 3125 3125 3125 3124 3124 3123 3122 3121 3121 3120 3120 3119 3120 3120 3120 3120 3120 3120 3121 3121 3121 3121 3122 3122 3122 3122 3123 3123 3124 3124 3125 3125 3125 3126 3126 3127 3127 3127 3127 3128 3128 3128 3129 3131 3132 3133 3134 3134 3135 3135 3135 3135 3134 3134 3136 3137 3138 3139 3140 3140 3142 3143 3144 3145
3107 3106 3108 3109 3111 3112 3113 3114 3115 3115 3116 3117 3118 3119 3120 3121 3121 3122 3123 3124 3124 3125 3125 3124 3124 3123 3123 3122 3121 3120 3120 3119 3119 3119 3119 3119 3119 3119 3120 3120 3120 3120 3121 3121 3121 3121 3121 3122 3122 3123 3123 3123 3124 3124 3124 3124 3125 3125 3125 3125 3126 3127 3127 3128 3131 3132 3132 3133 3133 3133 3134 3134 3134 3134 3135 3135 3136 3136 3137 3137 3138 3139 3139 3140 3141
3106 3106 3107 3108 3110 3112 3112 3113 3113 3114 3115 3116 3117 3118 3119 3119 3120 3121 3122 3123 3124 3124 3124 3124 3123 3123 3122 3122 3121 3120 3120 3119 3119 3119 3118 3119 3119 3119 3119 3119 3120 3120 3120 3120 3120 3120 3120 3121 3121 3122 3122 3122 3122 3123 3123 3123 3123 3123 3124 3124 3125 3126 3126 3127 3129 3131 3131 3131 3131 3131 3132 3132 3133 3134 3134 3134 3135 3136 3136 3136 3136 3137 3137 3138 3139
3104 3105 3105 3106 3108 3110 3111 3112 3112 3113 3114 3115 3116 3117 3118 3118 3119 3120 3121 3122 3123 3123 3124 3124 3123 3123 3122 3121 3121 3120 3120 3120 3119 3119 3119 3119 3119 3119 3119 3119 3119 3119 3119 3120 3120 3120 3120 3120 3120 3121 3121 3121 3121 3121 3122 3122 3122 3122 3123 3123 3124 3124 3125 3126 3127 3128 3128 3129 3128 3129 3130 3131 3131 3132 3133 3134 3134 3135 3135 3135 3135 3135 3136 3136 3137
3103 3104 3104 3105 3106 3108 3109 3110 3111 3112 3113 3114 3115 3116 3117 3117 3118 3119 3120 3121 3122 3122 3123 3123 3123 3122 3122 3121 3121 3120 3120 3120 3120 3119 3119 3119 3119 3119 3119 3119 3119 3119 3119 3119 3119 3119 3119 3119 3120 3120 3120 3120 3121 3121 3121 3121 3121 3121 3121 3122 3122 3123 3123 3124 3125 3126 3126 3126 3126 3127 3128 3129 3129 3130 3131 3132 3133 3133 3133 3133 3133 3133 3134 3134 3135
3103 3103 3103 3104 3105 3106 3106 3108 3109 3109 3111 3112 3113 3114 3115 3116 3117 3118 3118 3120 3121 3121 3122 3122 3122 3122 3121 3121 3120 3120 3120 3120 3120 3119 3119 3119 3119 3118 3118 3118 3118 3118 3118 3118 3118 3118 3118 3119 3119 3119 3119 3120 3120 3120 3120 3120 3120 3120 3121 3121 3121 3121 3122 3123 3123 3124 3124 3124 3125 3126 3127 3127 3128 3129 3130 3130 3131 3131 3131 3131 3131 3131 3131 3132 3133
3101 3102 3102 3102 3103 3104 3104 3105 3106 3107 3108 3110 3111 3112 3113 3114 3115 3116 3117 3118 3119 3121 3121 3121 3121 3121 3121 3120 3120 3120 3120 3120 3119 3119 3119 3118 3118 3118 3118 3118 3118 3118 3117 3117 3117 3117 3118 3118 3118 3118 3119 3119 3119 3119 3119 3120 3120 3120 3120 3120 3120 3121 3121 3121 3122 3122 3122 3123 3123 3124 3125 3126 3126 3127 3127 3128 3129 3129 3128 3128 3129 3129 3129 3130 3130
3099 3099 3100 3100 3101 3102 3102 3102 3103 3104 3105 3107 3108 3109 3110 3111 3113 3114 3115 3117 3118 3119 3120 3120 3120 3120 3120 3120 3120 3120 3119 3119 3119 3119 3118 3118 3118 3118 3118 3118 3118 3117 3117 3117 3117 3117 3117 3117 3117 3117 3118 3118 3118 3118 3118 3119 3119 3119 3119 3120 3120 3120 3120 3120 3121 3121 3121 3121 3122 3122 3123 3124 3124 3125 3125 3125 3126 3126 3126 3126 3126 3127 3127 3128 3128
3097 3097 3097 3098 3098 3099 3099 3100 3100 3100 3102 3104 3105 3106 3107 3109 3111 3112 3113 3115 3117 3118 3118 3119 3119 3120 3120 3120 3120 3119 3119 3119 3118 3118 3118 3118 3118 3118 3118 3118 3118 3117 3117 3117 3116 3116 3116 3116 3116 3117 3117 3117 3118 3118 3118 3118 3118 3119 3119 3119 3119 3120 3120 3120 3120 3120 3120 3121 3121 3121 3121 3122 3123 3123 3123 3124 3124 3124 3124 3124 3124 3125 3125 3126 3126
3095 3095 3095 3096 3096 3096 3097 3097 3096 3097 3098 3100 3101 3103 3104 3106 3108 3109 3111 3113 3114 3116 3117 3117 3118 3119 3119 3119 3119 3119 3119 3118 3118 3118 3118 3118 3118 3118 3118 3118 3118 3118 3117 3117 3117 3116 3116 3116 3116 3116 3117 3117 3117 3117 3118 3118 3118 3118 3119 3119 3119 3119 3120 3120 3120 3120 3120 3120 3121 3121 3121 3121 3121 3122 3122 3122 3122 3122 3122 3122 3123 3123 3123 3124 3124
3093 3094 3093 3093 3093 3093 3093 3093 3093 3092 3093 3095 3097 3100 3101 3103 3105 3107 3109 3110 3112 3114 3115 3115 3117 3117 3118 3118 3118 3119 3118 3118 3118 3118 3118 3118 3118 3118 3118 3118 3118 3118 3118 3117 3117 3117 3117 3117 3117 3117 3117 3117 3117 3117 3117 3118 3118 3118 3118 3118 3119 3119 3119 3119 3120 3120 3120 3120 3120 3120 3120 3121 3121 3121 3121 3121 3121 3121 3121 3121 3121 3121 3122 3122 3122
3092 3091 3091 3091 3090 3090 3089 3089 3088 3088 3089 3091 3094 3096 3098 3100 3102 3104 3107 3108 3110 3111 3113 3114 3115 3116 3117 3117 3118 3118 3118 3118 3118 3118 3118 3118 3118 3118 3118 3118 3118 3118 3118 3118 3117 3118 3118 3117 3117 3117 3117 3117 3117 3117 3117 3118 3117 3117 3117 3117 3118 3118 3118 3119 3119 3119 3119 3119 3120 3120 3120 3120 3120 3120 3120 3120 3120 3120 3120 3120 3120 3120 3121 3121 3121
3090 3089 3089 3088 3087 3086 3086 3085 3085 3085 3086 3088 3091 3093 3095 3097 3099 3102 3104 3107 3108 3109 3111 3112 3113 3114 3115 3116 3117 3117 3117 3117 3117 3117 3117 3117 3117 3117 3118 3118 3118 3118 3118 3118 3118 3118 3118 3118 3118 3118 3118 3118 3118 3118 3118 3118 3118 3117 3117 3117 3117 3117 3117 3118 3118 3118 3118 3118 3118 3118 3118 3119 3119 3119 3119 3119 3119 3119 3119 3119 3119 3119 3119 3120 3120
3088 3088 3087 3086 3085 3084 3083 3083 3083 3084 3085 3086 3088 3091 3092 3095 3097 3099 3102 3104 3106 3107 3109 3110 3111 3112 3114 3115 3115 3116 3116 3116 3116 3116 3116 3116 3116 3116 3117 3117 3117 3118 3118 3118 3118 3118 3118 3118 3118 3118 3118 3118 3118 3118 3118 3118 3118 3118 3117 3117 3117 3117 3117 3117 3117 3117 3117 3117 3117 3117 3118 3117 3117 3118 3117 3117 3117 3117 3117 3117 3117 3117 3117 3118 3118
3087 3086 3086 3085 3084 3083 3081 3082 3082 3083 3084 3085 3087 3088 3090 3092 3094 3096 3098 3101 3103 3105 3107 3108 3109 3111 3112 3113 3114 3114 3114 3114 3114 3114 3114 3114 3115 3115 3115 3116 3116 3116 3117 3117 3118 3118 3118 3118 3118 3118 3118 3118 3118 3118 3118 3118 3118 3118 3117 3117 3117 3117 3116 3116 3116 3116 3116 3116 3117 3117 3117 3117 3117 3117 3117 3116 3116 3116 3116 3116 3116 3116 3116 3116 3117
3085 3085 3085 3084 3083 3082 3081 3081 3081 3082 3083 3084 3085 3087 3088 3090 3092 3093 3096 3098 3101 3102 3104 3105 3107 3108 3109 3111 3112 3112 3112 3112 3112 3112 3112 3113 3113 3113 3114 3114 3114 3115 3115 3116 3117 3117 3118 3118 3118 3118 3118 3118 3118 3118 3118 3118 3118 3117 3117 3117 3117 3117 3116 3116 3115 3115 3115 3115 3115 3115 3116 3116 3116 3116 3116 3116 3115 3115 3115 3115 3115 3115 3115 3115 3115
3084 3084 3084 3084 3083 3082 3081 3081 3081 3082 3083 3083 3084 3086 3087 3088 3089 3091 3093 3095 3097 3099 3101 3103 3104 3106 3107 3108 3108 3109 3109 3109 3109 3110 3110 3111 3111 3111 3112 3112 3113 3113 3114 3114 3115 3116 3116 3117 3117 3117 3117 3117 3117 3117 3118 3118 3117 3117 3117 3117 3117 3116 3116 3116 3115 3115 3115 3114 3114 3114 3114 3114 3114 3114 3114 3115 3115 3114 3114 3114 3114 3114 3113 3113 3113
3083 3083 3084 3083 3083 3082 3081 3081 3081 3083 3084 3084 3085 3086 3087 3087 3088 3089 3091 3093 3095 3096 3098 3100 3101 3103 3104 3104 3105 3106 3107 3107 3107 3108 3108 3109 3109 3109 3110 3110 3111 3111 3111 3112 3113 3114 3114 3115 3116 3116 3116 3116 3116 3116 3116 3117 3117 3117 3116 3116 3116 3116 3116 3116 3116 3115 3115 3114 3114 3114 3114 3113 3113 3113 3113 3113 3113 3113 3113 3113 3113 3112 3112 3111 3111
3083 3083 3083 3083 3083 3082 3082 3082 3082 3082 3083 3084 3085 3086 3087 3087 3088 3088 3089 3090 3092 3093 3095 3097 3098 3100 3101 3101 3102 3103 3104 3105 3105 3106 3105 3106 3107 3108 3108 3108 3109 3108 3108 3109 3110 3111 3112 3113 3113 3114 3115 3115 3115 3115 3115 3115 3115 3115 3115 3115 3115 3115 3115 3115 3115 3115 3114 3114 3114 3113 3113 3113 3112 3112 3112 3111 3111 3111 3111 3111 3111 3111 3110 3110 3109
3081 3082 3082 3082 3082 3082 3082 3082 3082 3082 3082 3083 3085 3085 3086 3086 3087 3088 3088 3088 3088 3089 3092 3093 3095 3096 3097 3098 3099 3101 3102 3103 3103 3103 3103 3103 3104 3105 3105 3105 3106 3106 3106 3107 3107 3108 3109 3110 3111 3111 3112 3113 3113 3113 3113 3113 3114 3114 3113 3113 3113 3113 3113 3113 3113 3113 3113 3113 3113 3112 3112 3112 3111 3111 3110 3110 3109 3109 3109 3109 3109 3108 3108 3108 3107
3080 3080 3081 3081 3081 3081 3081 3081 3081 3081 3081 3082 3083 3084 3084 3085 3085 3086 3086 3087 3087 3088 3089 3090 3092 3094 3095 3096 3097 3099 3100 3100 3099 3099 3100 3099 3099 3101 3103 3103 3103 3104 3104 3104 3105 3105 3105 3106 3107 3108 3109 3110 3111 3111 3112 3112 3112 3112 3112 3111 3111 3111 3111 3111 3111 3110 3110 3110 3110 3110 3110 3110 3109 3109 3109 3108 3107 3107 3107 3106 3106 3106 3105 3105 3104
3078 3078 3079 3079 3079 3079 3079 3079 3080 3080 3080 3080 3081 3081 3082 3082 3083 3084 3085 3086 3087 3087 3087 3088 3089 3091 3092 3093 3094 3095 3096 3096 3095 3094 3094 3095 3095 3097 3100 3100 3100 3101 3102 3102 3103 3103 3102 3103 3103 3105 3106 3107 3108 3108 3109 3109 3109 3110 3109 3109 3109 3109 3109 3109 3108 3108 3108 3108 3107 3107 3107 3107 3107 3106 3106 3106 3105 3105 3104 3104 3103 3103 3102 3102 3101
3075 3076 3076 3077 3077 3077 3077 3078 3078 3078 3079 3079 3079 3079 3080 3080 3081 3082 3082 3083 3084 3085 3086 3086 3087 3088 3090 3090 3091 3092 3093 3092 3092 3091 3090 3089 3091 3094 3097 3098 3099 3099 3099 3099 3100 3100 3100 3099 3100 3101 3102 3103 3105 3105 3106 3106 3106 3107 3107 3106 3106 3107 3106 3106 3106 3106 3106 3105 3105 3104 3104 3103 3103 3103 3103 3102 3102 3101 3101 3101 3100 3100 3099 3099 3098
3073 3074 3074 3074 3075 3075 3076 3076 3076 3077 3077 3078 3078 3078 3078 3078 3079 3079 3080 3081 3081 3082 3083 3085 3086 3087 3088 3089 3089 3090 3089 3088 3089 3089 3088 3088 3089 3092 3095 3096 3096 3096 3096 3096 3097 3097 3098 3097 3097 3097 3097 3099 3100 3101 3102 3102 3103 3103 3104 3104 3103 3103 3103 3103 3103 3103 3102 3102 3102 3101 3100 3100 3099 3099 3099 3098 3098 3098 3097 3097 3096 3096 3096 3096 3095
3071 3071 3071 3072 3072 3072 3073 3074 3074 3075 3075 3076 3076 3077 3077 3077 3078 3079 3079 3080 3080 3081 3081 3082 3084 3085 3085 3086 3086 3087 3087 3086 3086 3087 3087 3088 3089 3091 3093 3094 3094 3094 3094 3094 3094 3094 3094 3094 3093 3093 3094 3094 3095 3096 3097 3097 3098 3099 3100 3100 3100 3100 3100 3100 3100 3099 3099 3099 3098 3097 3097 3096 3096 3095 3094 3094 3094 3093 3093 3093 3092 3092 3092 3092 3091
3069 3068 3069 3069 3070 3070 3071 3071 3072 3072 3073 3073 3074 3075 3075 3076 3076 3077 3078 3078 3079 3080 3080 3080 3081 3082 3082 3083 3084 3084 3085 3085 3085 3086 3087 3088 3088 3089 3090 3091 3091 3091 3091 3091 3091 3090 3090 3089 3089 3090 3090 3090 3091 3091 3091 3093 3094 3095 3096 3096 3096 3097 3096 3096 3096 3096 3095 3095 3094 3093 3093 3093 3092 3091 3090 3089 3089 3088 3088 3088 3088 3088 3087 3087 3087
3066 3066 3067 3067 3067 3068 3068 3068 3069 3069 3070 3071 3071 3072 3072 3073 3074 3075 3075 3076 3077 3077 3078 3078 3079 3079 3080 3080 3081 3081 3082 3082 3083 3083 3084 3085 3086 3086 3087 3088 3088 3089 3088 3088 3087 3086 3085 3085 3086 3086 3087 3087 3087 3086 3087 3090 3091 3092 3092 3092 3092 3092 3092 3092 3092 3092 3091 3091 3090 3090 3089 3088 3088 3087 3086 3085 3084 3083 3083 3083 3083 3083 3082 3082 3082
3062 3062 3064 3065 3065 3065 3065 3066 3066 3067 3067 3068 3068 3069 3069 3070 3071 3071 3072 3073 3073 3074 3075 3076 3076 3077 3077 3078 3078 3078 3079 3079 3080 3080 3081 3082 3082 3083 3084 3084 3085 3085 3085 3084 3083 3083 3082 3081 3082 3082 3083 3084 3083 3082 3084 3086 3088 3088 3088 3087 3087 3088 3088 3088 3089 3088 3087 3086 3086 3085 3084 3083 3083 3082 3082 3081 3080 3079 3078 3078 3078 3078 3077 3077 3077
3059 3058 3061 3062 3061 3062 3063 3063 3064 3064 3064 3065 3065 3066 3066 3066 3067 3067 3068 3069 3069 3070 3071 3072 3073 3073 3074 3075 3075 3075 3076 3076 3077 3077 3078 3078 3079 3079 3080 3080 3081 3081 3081 3081 3081 3080 3080 3079 3078 3078 3079 3079 3079 3080 3081 3082 3084 3085 3084 3083 3083 3083 3083 3084 3084 3084 3084 3082 3081 3081 3080 3078 3078 3077 3076 3075 3074 3074 3073 3073 3073 3073 3073 3072 3072
3055 3055 3057 3058 3057 3058 3060 3061 3062 3061 3062 3062 3062 3062 3063 3063 3064 3064 3065 3065 3066 3066 3067 3068 3069 3069 3070 3071 3071 3072 3073 3073 3073 3074 3074 3075 3075 3075 3075 3076 3076 3076 3076 3077 3077 3077 3077 3076 3075 3076 3075 3074 3075 3077 3078 3078 3079 3080 3080 3079 3078 3077 3078 3080 3080 3080 3080 3079 3078 3077 3075 3074 3073 3072 3071 3070 3069 3069 3068 3067 3067 3067 3067 3067 3067
3052 3052 3053 3053 3054 3056 3056 3058 3058 3058 3059 3060 3059 3059 3060 3060 3061 3061 3062 3063 3063 3064 3064 3065 3066 3066 3066 3067 3068 3068 3069 3069 3070 3070 3071 3071 3071 3071 3072 3072 3072 3072 3071 3072 3073 3073 3073 3072 3071 3072 3070 3069 3071 3074 3074 3074 3075 3075 3074 3075 3073 3072 3074 3076 3075 3075 3075 3074 3074 3073 3071 3070 3069 3067 3066 3065 3064 3064 3063 3062 3061 3061 3060 3060 3060
3049 3049 3048 3049 3051 3053 3053 3054 3054 3055 3056 3057 3056 3056 3057 3057 3058 3059 3059 3060 3060 3061 3062 3062 3063 3063 3063 3064 3064 3065 3065 3066 3066 3067 3067 3067 3068 3068 3068 3068 3068 3068 3067 3067 3068 3068 3068 3068 3068 3067 3065 3064 3067 3070 3070 3070 3070 3069 3070 3070 3068 3068 3070 3071 3070 3070 3070 3070 3069 3068 3067 3066 3065 3064 3062 3060 3059 3059 3058 3057 3056 3055 3055 3054 3053
3045 3044 3044 3045 3047 3049 3049 3050 3051 3051 3052 3053 3052 3053 3054 3054 3055 3056 3056 3057 3057 3058 3058 3059 3059 3059 3060 3060 3061 3062 3062 3062 3063 3063 3063 3064 3063 3063 3064 3064 3064 3064 3064 3064 3064 3063 3063 3063 3063 3063 3060 3060 3063 3066 3065 3065 3065 3064 3065 3064 3064 3065 3066 3066 3066 3066 3066 3065 3064 3063 3062 3062 3061 3059 3057 3056 3055 3055 3054 3053 3051 3050 3049 3048 3048
3042 3040 3040 3042 3043 3044 3044 3045 3047 3048 3048 3049 3049 3050 3050 3051 3052 3052 3053 3054 3054 3055 3055 3055 3055 3056 3056 3056 3057 3057 3058 3058 3059 3059 3060 3060 3060 3059 3059 3059 3060 3060 3060 3060 3060 3060 3060 3059 3059 3058 3056 3057 3060 3061 3060 3060 3060 3060 3060 3060 3060 3061 3061 3061 3061 3061 3061 3060 3059 3059 3058 3057 3056 3054 3052 3051 3051 3051 3050 3048 3046 3045 3044 3042 3042
3039 3038 3038 3038 3038 3039 3041 3042 3043 3044 3045 3045 3046 3046 3047 3048 3048 3049 3049 3050 3050 3051 3052 3052 3052 3052 3052 3052 3053 3053 3054 3054 3055 3055 3055 3056 3056 3056 3056 3056 3056 3056 3056 3056 3055 3055 3056 3055 3055 3053 3052 3053 3056 3056 3055 3055 3056 3056 3056 3056 3057 3057 3057 3057 3056 3056 3055 3055 3055 3054 3054 3053 3051 3049 3048 3046 3046 3046 3045 3043 3041 3039 3038 3037 3036
3036 3036 3036 3034 3034 3035 3037 3038 3039 3040 3041 3041 3042 3042 3043 3043 3044 3044 3045 3046 3047 3047 3048 3048 3048 3048 3048 3049 3049 3049 3050 3050 3050 3051 3051 3051 3052 3052 3052 3052 3052 3052 3052 3052 3051 3051 3052 3051 3050 3049 3048 3050 3051 3051 3051 3051 3052 3052 3053 3053 3054 3053 3053 3052 3052 3051 3051 3051 3050 3049 3048 3047 3046 3044 3043 3042 3041 3041 3039 3038 3036 3035 3033 3032 3030
3034 3035 3033 3030 3030 3032 3034 3034 3035 3036 3036 3037 3037 3038 3038 3039 3039 3040 3041 3042 3042 3043 3044 3044 3044 3044 3045 3045 3045 3046 3046 3046 3046 3047 3047 3047 3047 3047 3047 3047 3047 3047 3047 3047 3047 3047 3047 3046 3045 3045 3046 3046 3046 3046 3047 3047 3048 3049 3050 3050 3050 3049 3049 3048 3048 3048 3047 3047 3046 3044 3042 3041 3040 3039 3038 3037 3035 3034 3033 3032 3031 3029 3027 3026 3024
3032 3031 3029 3027 3027 3029 3029 3030 3030 3031 3032 3032 3033 3033 3034 3034 3034 3035 3035 3037 3038 3038 3039 3039 3039 3040 3040 3041 3042 3042 3042 3042 3042 3042 3042 3043 3043 3043 3043 3043 3042 3042 3043 3043 3042 3042 3041 3040 3040 3041 3041 3041 3042 3042 3042 3043 3044 3046 3046 3046 3046 3045 3045 3045 3045 3044 3044 3043 3042 3040 3038 3036 3035 3034 3033 3031 3029 3028 3027 3025 3024 3022 3021 3019 3017
3027 3026 3024 3023 3024 3025 3025 3026 3026 3027 3027 3028 3028 3028 3028 3029 3029 3030 3030 3031 3032 3033 3033 3034 3034 3034 3035 3036 3037 3037 3038 3038 3038 3038 3038 3038 3038 3038 3038 3038 3038 3038 3038 3038 3038 3037 3035 3036 3037 3037 3036 3037 3037 3038 3039 3040 3041 3041 3041 3041 3041 3041 3042 3042 3041 3041 3040 3039 3038 3036 3033 3032 3031 3029 3027 3025 3023 3022 3020 3019 3017 3015 3014 3012 3010
3021 3021 3020 3020 3020 3020 3021 3021 3022 3022 3023 3023 3023 3023 3023 3024 3024 3025 3026 3026 3027 3027 3028 3028 3029 3029 3029 3029 3030 3032 3032 3033 3033 3034 3034 3034 3034 3033 3033 3033 3033 3032 3033 3033 3033 3032 3031 3032 3033 3033 3032 3032 3033 3034 3035 3036 3036 3036 3037 3037 3037 3037 3037 3037 3037 3036 3035 3034 3033 3032 3029 3027 3026 3023 3021 3019 3017 3015 3013 3011 3010 3008 3006 3004 3002
3017 3017 3016 3016 3016 3016 3016 3016 3017 3017 3018 3018 3018 3018 3018 3019 3019 3020 3021 3021 3022 3022 3023 3023 3023 3023 3023 3024 3025 3026 3027 3027 3027 3027 3028 3029 3029 3028 3027 3028 3028 3028 3028 3029 3029 3028 3027 3028 3029 3028 3028 3029 3030 3030 3030 3031 3031 3032 3032 3033 3033 3033 3033 3033 3032 3031 3030 3029 3028 3026 3024 3022 3020 3017 3015 3013 3010 3008 3006 3004 3002 3000 2998 2996 2994
3012 3012 3012 3012 3011 3011 3011 3011 3012 3012 3012 3012 3013 3012 3012 3013 3014 3015 3015 3016 3016 3016 3017 3017 3017 3018 3018 3019 3020 3021 3021 3021 3021 3021 3022 3022 3022 3022 3022 3022 3023 3023 3024 3024 3024 3023 3023 3024 3025 3025 3024 3025 3026 3026 3026 3026 3027 3028 3028 3029 3029 3030 3029 3029 3028 3027 3026 3024 3023 3021 3019 3016 3014 3012 3009 3007 3005 3002 3000 2998 2996 2994 2991 2989 2987
3007 3007 3007 3007 3006 3005 3005 3005 3006 3006 3006 3006 3006 3006 3006 3007 3008 3009 3009 3009 3010 3010 3011 3011 3011 3012 3013 3014 3015 3015 3016 3016 3015 3016 3017 3016 3015 3015 3017 3017 3018 3019 3019 3019 3018 3018 3020 3021 3021 3020 3020 3020 3022 3023 3023 3023 3023 3024 3025 3025 3026 3026 3026 3025 3024 3023 3021 3019 3017 3015 3013 3011 3009 3007 3004 3002 2999 2997 2995 2992 2990 2987 2985 2983 2981
3002 3002 3002 3001 3000 2999 2998 2999 2999 2999 2999 2999 2999 2999 2999 3000 3000 3001 3002 3002 3003 3004 3004 3004 3005 3006 3007 3008 3009 3010 3010 3010 3009 3010 3011 3009 3008 3009 3011 3012 3013 3014 3014 3014 3013 3015 3017 3017 3017 3017 3017 3017 3018 3018 3019 3019 3020 3021 3021 3022 3022 3023 3022 3021 3020 3019 3017 3015 3013 3011 3009 3006 3004 3001 2999 2996 2994 2991 2988 2986 2983 2981 2978 2976 2973
2996 2997 2996 2995 2994 2993 2992 2992 2992 2992 2993 2993 2992 2992 2993 2993 2993 2994 2995 2995 2996 2997 2997 2998 2998 2999 3001 3002 3003 3003 3004 3004 3004 3004 3004 3003 3003 3004 3005 3007 3008 3008 3008 3009 3011 3012 3013 3013 3013 3014 3014 3014 3015 3015 3016 3017 3018 3018 3019 3019 3020 3019 3019 3017 3016 3014 3013 3011 3009 3007 3004 3002 2999 2996 2993 2990 2988 2985 2982 2979 2976 2974 2971 2969 2967
2989 2989 2989 2987 2987 2986 2986 2985 2985 2986 2986 2986 2986 2986 2987 2988 2988 2988 2988 2989 2990 2990 2990 2991 2992 2993 2995 2996 2996 2997 2998 2998 2998 2997 2997 2998 2999 2999 3000 3002 3003 3003 3004 3006 3008 3009 3009 3010 3010 3011 3011 3012 3013 3014 3015 3015 3016 3017 3017 3017 3017 3016 3015 3013 3012 3011 3009 3007 3005 3003 3000 2997 2994 2991 2988 2984 2981 2978 2976 2973 2970 2967 2964 2962 2960
2982 2982 2981 2981 2980 2980 2979 2979 2979 2979 2979 2979 2979 2980 2981 2982 2983 2983 2983 2983 2983 2984 2984 2985 2987 2988 2989 2990 2991 2992 2992 2992 2992 2992 2993 2994 2995 2995 2996 2998 2999 3000 3002 3003 3004 3005 3006 3007 3008 3008 3008 3009 3011 3012 3012 3013 3014 3014 3015 3015 3014 3013 3012 3010 3009 3008 3006 3004 3001 2999 2996 2992 2989 2985 2982 2979 2975 2972 2969 2966 2964 2961 2958 2956 2953
2976 2976 2975 2975 2974 2973 2973 2972 2973 2973 2973 2972 2973 2973 2974 2975 2976 2977 2977 2977 2977 2978 2979 2980 2982 2983 2984 2985 2986 2987 2987 2987 2987 2987 2988 2990 2991 2992 2993 2994 2996 2997 2999 3000 3001 3002 3003 3004 3005 3006 3006 3007 3009 3009 3010 3011 3011 3012 3012 3011 3011 3010 3009 3008 3007 3005 3003 3000 2997 2994 2991 2987 2984 2980 2977 2973 2970 2966 2963 2960 2957 2955 2952 2950 2948